Погода в Деражне

Украина / Хмельницкая область     49°16′08″N   27°25′49″E
темп.,
°C
ветер,
м/с
пор.,
м/с
влажн.,
%
обл.,
%
осадки,
мм/ч
давл.,
гПа
погр.,
м
7 марта, вс
вс723:00−4з49810 0.0 1028297
02:00−3зюз511790 0.0 1028389
05:00−4зюз612800 0.0 1025392
08:00−3зюз714710 0.0 1023665
11:00+1з1015560 0.0 10211296
14:00+3з9145447 0.0 10181343
17:00+2з6126023 0.0 10161118
20:00−1зюз5157215 0.0 1016551
8 марта, пн
пн823:00−1з7166440 0.0 1016617
02:00−1з6157042 0.0 1014950
05:00−1з6138264 0.0 1013699
08:00−1зсз6119177 0.1 1014708
11:00+1зсз6975100 0.3 10141015
14:00+1сз6965100 0.7 10141204
17:000сз595992 0.0 10151313
20:00−2сз5117646 0.0 1018660
9 марта, вт
вт923:00−3сз38770 0.0 1019481
02:00−4зсз36740 0.0 1020295
05:00−4сз37780 0.0 1020412
08:00−4сз46742 0.0 1022646
11:00−2ссз346095 0.1 10231052
14:00−1ссз235297 0.1 10221238
17:00−1ссз225291 0.0 10221222
20:00−2в126196 0.0 102333
10 марта, ср
ср1023:00−3вюв2564100 0.0 1024210
02:00−3юв3665100 0.0 1023347
05:00−3юв3769100 0.0 1022377
08:00−3ююв4680100 0.0 1022479
11:00−1юв4586100 0.3 1022437
14:00−1юв4590100 1.4 1021441
17:00−1вюв4590100 0.4 1021394
20:00−3вюв259494 0.4 1023230
11 марта, чт
чт1123:00−3юв239643 0.0 1024121
02:00−4ю119737 0.0 102432
05:00−3ююз229598 0.2 1024143
08:00−3ююз239194 0.3 1025175
11:00−1ю347573 0.1 1025616
14:000ю457277 0.2 1024791
17:00−1ю567790 0.0 1023572
20:00−2ююв5107994 0.0 1022527